Hourly Data Report for October 17, 2015

All times are specified in Local Standard Time (LST). Add 1 hour to adjust for Daylight Saving Time where and when it is observed.

PETAWAWA AWOS 2
ONTARIO

45°57'00.000" N
77°19'00.000" W
130.10 m
6106396
71625
YWA

Download Data

Hourly Data (October 2015)
Hourly Data Report for October 17, 2015
Temp Definition
°C
Dew Point Temp Definition
°C
Rel Hum Definition
%
Wind Dir Definition
10's deg

Wind Spd Definition
km/h
Visibility Definition
km
Stn Press Definition
kPa
Hmdx Definition


Wind Chill Definition


Weather Definition


TIME
00:00 2.0 0.3 88 30 17 14.5 100.05     Rain
01:00 1.7 -0.1 88 31 13 14.5 100.11     LegendNANA
02:00 1.4 -0.6 86 31 11 14.5 100.13     LegendNANA
03:00 1.3 -0.6 87 30 13 14.5 100.15     LegendNANA
04:00 1.0 -0.8 88 30 13 14.5 100.20     LegendNANA
05:00 0.9 -1.5 84 32 13 14.5 100.29     Snow
06:00 0.0 -2.7 82 31 13 14.5 100.36   -4 LegendNANA
07:00 0.3 -3.3 77 31 9 14.5 100.44     LegendNANA
08:00 0.9 -3.3 74 32 17 14.5 100.52     Snow
09:00 1.1 -5.2 63 33 28 14.5 100.59     Snow
10:00 2.9 -4.4 59 34 28 14.5 100.60     Snow
11:00 4.2 -5.3 50 34 22 14.5 100.63     Snow
12:00 3.8 -4.8 53 32 17 14.5 100.61     LegendNANA
13:00 4.0 -6.1 48 32 19 14.5 100.59     LegendNANA
14:00 3.9 -4.9 53 33 15 14.5 100.58     LegendNANA
15:00 2.7 -3.8 62 34 9 14.5 100.62     LegendNANA
16:00 2.4 -4.8 59 31 13 14.5 100.66     LegendNANA
17:00 1.6 -4.1 66 32 15 14.5 100.72     LegendNANA
18:00 -0.2 -2.5 84 31 7 14.5 100.78   -3 LegendNANA
19:00 -0.5 -3.2 82 28 4 14.5 100.83   -2 LegendNANA
20:00 -1.1 -3.9 81 29 11 14.5 100.84   -5 LegendNANA
21:00 -1.9 -4.5 82 28 6 14.5 100.86   -4 LegendNANA
22:00 -2.7 -4.8 85 27 9 14.5 100.88   -6 LegendNANA
23:00 -3.2 -5.2 86 27 7 14.5 100.88   -6 LegendNANA

Notes on Data Quality.

Legend

  • E = Estimated
  • M = Missing
  • NA = Not Available
  • ‡ = Partner data that is not subject to review by the National Climate Archives
Date modified: